Year,Month,Day,Hour,Minute,Value (Times are PST for temperature in C)
2018,06,17,00,00,18.00
2018,06,17,00,01,18.20
2018,06,17,00,02,17.70
2018,06,17,00,03,17.00
2018,06,17,00,04,16.50
2018,06,17,00,05,16.10
2018,06,17,00,06,15.90
2018,06,17,00,07,15.60
2018,06,17,00,08,15.20
2018,06,17,00,09,15.40
2018,06,17,00,10,16.50
2018,06,17,00,11,16.90
2018,06,17,00,12,17.30
2018,06,17,00,13,17.70
2018,06,17,00,14,18.00
2018,06,17,00,15,17.60
2018,06,17,00,16,17.00
2018,06,17,00,17,16.80
2018,06,17,00,18,17.20
2018,06,17,00,19,17.60
2018,06,17,00,20,17.60
2018,06,17,00,21,17.60
2018,06,17,00,22,17.20
2018,06,17,00,23,16.70
2018,06,17,00,24,16.20
2018,06,17,00,25,16.00
2018,06,17,00,26,16.00
2018,06,17,00,27,16.30
2018,06,17,00,28,16.40
2018,06,17,00,29,16.20
2018,06,17,00,30,16.10
2018,06,17,00,31,15.90
2018,06,17,00,32,15.60
2018,06,17,00,33,15.30
2018,06,17,00,34,15.10
2018,06,17,00,35,14.90
2018,06,17,00,36,14.70
2018,06,17,00,37,14.50
2018,06,17,00,38,14.30
2018,06,17,00,39,14.00
2018,06,17,00,40,13.90
2018,06,17,00,41,14.00
2018,06,17,00,42,14.40
2018,06,17,00,43,14.90
2018,06,17,00,44,14.80
2018,06,17,00,45,14.80
2018,06,17,00,46,15.00
2018,06,17,00,47,15.30
2018,06,17,00,48,15.50
2018,06,17,00,49,15.60
2018,06,17,00,50,15.70
2018,06,17,00,51,15.80
2018,06,17,00,52,16.00
2018,06,17,00,53,16.20
2018,06,17,00,54,16.20
2018,06,17,00,55,16.30
2018,06,17,00,56,16.40
2018,06,17,00,57,16.40
2018,06,17,00,58,16.30
2018,06,17,00,59,16.20
2018,06,17,01,00,16.20
2018,06,17,01,01,16.30
2018,06,17,01,02,16.40
2018,06,17,01,03,16.40
2018,06,17,01,04,16.50
2018,06,17,01,05,16.80
2018,06,17,01,06,16.80
2018,06,17,01,07,16.70
2018,06,17,01,08,16.60
2018,06,17,01,09,16.60
2018,06,17,01,10,16.50
2018,06,17,01,11,16.40
2018,06,17,01,12,16.40
2018,06,17,01,13,16.40
2018,06,17,01,14,16.30
2018,06,17,01,15,16.30
2018,06,17,01,16,16.20
2018,06,17,01,17,16.20
2018,06,17,01,18,16.20
2018,06,17,01,19,16.20
2018,06,17,01,20,16.20
2018,06,17,01,21,16.20
2018,06,17,01,22,16.10
2018,06,17,01,23,16.10
2018,06,17,01,24,16.00
2018,06,17,01,25,15.80
2018,06,17,01,26,15.90
2018,06,17,01,27,16.10
2018,06,17,01,28,16.10
2018,06,17,01,29,16.00
2018,06,17,01,30,15.90
2018,06,17,01,31,15.70
2018,06,17,01,32,15.70
2018,06,17,01,33,15.60
2018,06,17,01,34,15.60
2018,06,17,01,35,15.50
2018,06,17,01,36,15.50
2018,06,17,01,37,15.50
2018,06,17,01,38,15.50
2018,06,17,01,39,15.50
2018,06,17,01,40,15.50
2018,06,17,01,41,15.40
2018,06,17,01,42,15.40
2018,06,17,01,43,15.50
2018,06,17,01,44,15.50
2018,06,17,01,45,15.50
2018,06,17,01,46,15.70
2018,06,17,01,47,15.80
2018,06,17,01,48,16.10
2018,06,17,01,49,16.50
2018,06,17,01,50,16.80
2018,06,17,01,51,17.00
2018,06,17,01,52,17.10
2018,06,17,01,53,17.20
2018,06,17,01,54,17.20
2018,06,17,01,55,17.20
2018,06,17,01,56,17.20
2018,06,17,01,57,17.30
2018,06,17,01,58,17.30
2018,06,17,01,59,17.20
2018,06,17,02,00,17.10
2018,06,17,02,01,17.00
2018,06,17,02,02,16.90
2018,06,17,02,03,16.80
2018,06,17,02,04,16.70
2018,06,17,02,05,16.60
2018,06,17,02,06,16.50
2018,06,17,02,07,16.30
2018,06,17,02,08,16.10
2018,06,17,02,09,16.00
2018,06,17,02,10,15.80
2018,06,17,02,11,15.80
2018,06,17,02,12,15.80
2018,06,17,02,13,15.80
2018,06,17,02,14,15.80
2018,06,17,02,15,15.80
2018,06,17,02,16,15.80
2018,06,17,02,17,15.70
2018,06,17,02,18,15.70
2018,06,17,02,19,15.70
2018,06,17,02,20,15.60
2018,06,17,02,21,15.60
2018,06,17,02,22,15.50
2018,06,17,02,23,15.50
2018,06,17,02,24,15.30
2018,06,17,02,25,15.20
2018,06,17,02,26,15.10
2018,06,17,02,27,15.00
2018,06,17,02,28,14.80
2018,06,17,02,29,14.80
2018,06,17,02,30,14.70
2018,06,17,02,31,14.70
2018,06,17,02,32,14.60
2018,06,17,02,33,14.60
2018,06,17,02,34,14.60
2018,06,17,02,35,14.60
2018,06,17,02,36,14.70
2018,06,17,02,37,14.70
2018,06,17,02,38,14.70
2018,06,17,02,39,14.70
2018,06,17,02,40,14.70
2018,06,17,02,41,14.70
2018,06,17,02,42,14.80
2018,06,17,02,43,14.70
2018,06,17,02,44,14.70
2018,06,17,02,45,14.70
2018,06,17,02,46,14.60
2018,06,17,02,47,14.60
2018,06,17,02,48,14.60
2018,06,17,02,49,14.50
2018,06,17,02,50,14.50
2018,06,17,02,51,14.40
2018,06,17,02,52,14.30
2018,06,17,02,53,14.20
2018,06,17,02,54,14.10
2018,06,17,02,55,14.00
2018,06,17,02,56,13.80
2018,06,17,02,57,13.60
2018,06,17,02,58,13.40
2018,06,17,02,59,13.30
2018,06,17,03,00,13.20
2018,06,17,03,01,13.10
2018,06,17,03,02,13.10
2018,06,17,03,03,13.10
2018,06,17,03,06,13.10
2018,06,17,03,07,13.00
2018,06,17,03,08,12.90
2018,06,17,03,09,12.90
2018,06,17,03,10,12.80
2018,06,17,03,11,12.70
2018,06,17,03,12,12.80
2018,06,17,03,13,12.80
2018,06,17,03,14,12.80
2018,06,17,03,15,12.90
2018,06,17,03,16,13.00
2018,06,17,03,17,13.00
2018,06,17,03,18,13.10
2018,06,17,03,19,13.20
2018,06,17,03,20,13.30
2018,06,17,03,21,13.40
2018,06,17,03,22,13.50
2018,06,17,03,23,13.70
2018,06,17,03,24,13.70
2018,06,17,03,25,13.80
2018,06,17,03,26,13.90
2018,06,17,03,27,13.90
2018,06,17,03,28,13.80
2018,06,17,03,29,13.60
2018,06,17,03,30,13.30
2018,06,17,03,31,13.10
2018,06,17,03,32,12.90
2018,06,17,03,33,12.80
2018,06,17,03,34,12.60
2018,06,17,03,35,12.60
2018,06,17,03,36,12.50
2018,06,17,03,37,12.40
2018,06,17,03,38,12.40
2018,06,17,03,39,12.40
2018,06,17,03,40,12.30
2018,06,17,03,41,12.20
2018,06,17,03,42,12.20
2018,06,17,03,43,12.10
2018,06,17,03,44,12.10
2018,06,17,03,45,12.10
2018,06,17,03,46,12.10
2018,06,17,03,47,12.00
2018,06,17,03,48,11.90
2018,06,17,03,49,11.90
2018,06,17,03,50,11.90
2018,06,17,03,51,12.00
2018,06,17,03,52,12.10
2018,06,17,03,53,12.30
2018,06,17,03,54,12.40
2018,06,17,03,55,12.50
2018,06,17,03,56,12.60
2018,06,17,03,57,12.70
2018,06,17,03,58,12.80
2018,06,17,03,59,12.90
2018,06,17,04,00,12.80
2018,06,17,04,01,12.80
2018,06,17,04,02,12.70
2018,06,17,04,03,12.50
2018,06,17,04,04,12.50
2018,06,17,04,05,12.40
2018,06,17,04,06,12.30
2018,06,17,04,07,12.30
2018,06,17,04,08,12.30
2018,06,17,04,09,12.30
2018,06,17,04,10,12.40
2018,06,17,04,11,12.40
2018,06,17,04,12,12.40
2018,06,17,04,13,12.40
2018,06,17,04,14,12.40
2018,06,17,04,15,12.30
2018,06,17,04,16,12.30
2018,06,17,04,17,12.20
2018,06,17,04,18,12.10
2018,06,17,04,19,12.00
2018,06,17,04,20,12.00
2018,06,17,04,21,12.00
2018,06,17,04,22,12.00
2018,06,17,04,23,12.00
2018,06,17,04,24,12.00
2018,06,17,04,25,12.00
2018,06,17,04,26,12.00
2018,06,17,04,27,12.00
2018,06,17,04,28,12.00
2018,06,17,04,29,12.00
2018,06,17,04,30,12.00
2018,06,17,04,31,12.00
2018,06,17,04,32,12.00
2018,06,17,04,33,12.10
2018,06,17,04,34,12.10
2018,06,17,04,35,12.10
2018,06,17,04,36,12.10
2018,06,17,04,37,12.20
2018,06,17,04,38,12.20
2018,06,17,04,39,12.30
2018,06,17,04,40,12.30
2018,06,17,04,41,12.30
2018,06,17,04,42,12.30
2018,06,17,04,43,12.40
2018,06,17,04,44,12.40
2018,06,17,04,45,12.40
2018,06,17,04,46,12.40
2018,06,17,04,47,12.40
2018,06,17,04,48,12.40
2018,06,17,04,49,12.40
2018,06,17,04,50,12.50
2018,06,17,04,51,12.50
2018,06,17,04,52,12.50
2018,06,17,04,53,12.60
2018,06,17,04,54,12.50
2018,06,17,04,55,12.50
2018,06,17,04,56,12.50
2018,06,17,04,57,12.50
2018,06,17,04,58,12.40
2018,06,17,04,59,12.40
2018,06,17,05,00,12.40
2018,06,17,05,01,12.40
2018,06,17,05,02,12.40
2018,06,17,05,03,12.40
2018,06,17,05,04,12.40
2018,06,17,05,05,12.40
2018,06,17,05,06,12.40
2018,06,17,05,07,12.40
2018,06,17,05,08,12.50
2018,06,17,05,09,12.60
2018,06,17,05,10,12.70
2018,06,17,05,11,12.80
2018,06,17,05,12,12.80
2018,06,17,05,13,12.80
2018,06,17,05,14,12.80
2018,06,17,05,15,12.70
2018,06,17,05,16,12.70
2018,06,17,05,17,12.70
2018,06,17,05,18,12.70
2018,06,17,05,19,12.70
2018,06,17,05,20,12.70
2018,06,17,05,21,12.70
2018,06,17,05,22,12.60
2018,06,17,05,23,12.50
2018,06,17,05,24,12.50
2018,06,17,05,25,12.40
2018,06,17,05,26,12.30
2018,06,17,05,27,12.20
2018,06,17,05,28,12.20
2018,06,17,05,29,12.20
2018,06,17,05,30,12.00
2018,06,17,05,31,11.90
2018,06,17,05,32,11.90
2018,06,17,05,33,11.90
2018,06,17,05,34,12.00
2018,06,17,05,35,12.00
2018,06,17,05,36,12.00
2018,06,17,05,37,12.00
2018,06,17,05,38,12.10
2018,06,17,05,39,12.10
2018,06,17,05,40,12.20
2018,06,17,05,41,12.30
2018,06,17,05,42,12.40
2018,06,17,05,43,12.50
2018,06,17,05,44,12.50
2018,06,17,05,45,12.60
2018,06,17,05,46,12.70
2018,06,17,05,47,12.70
2018,06,17,05,48,12.80
2018,06,17,05,49,12.80
2018,06,17,05,50,12.80
2018,06,17,05,51,12.80
2018,06,17,05,52,12.80
2018,06,17,05,53,12.80
2018,06,17,05,54,12.80
2018,06,17,05,55,12.80
2018,06,17,05,56,12.80
2018,06,17,05,57,12.80
2018,06,17,05,58,12.80
2018,06,17,05,59,12.80
2018,06,17,06,00,12.90
2018,06,17,06,01,12.80
2018,06,17,06,02,12.90
2018,06,17,06,03,12.90
2018,06,17,06,04,12.90
2018,06,17,06,05,12.90
2018,06,17,06,06,13.10
2018,06,17,06,07,13.20
2018,06,17,06,08,13.40
2018,06,17,06,09,13.50
2018,06,17,06,10,13.50
2018,06,17,06,11,13.60
2018,06,17,06,12,13.60
2018,06,17,06,13,13.50
2018,06,17,06,14,13.40
2018,06,17,06,15,13.40
2018,06,17,06,16,13.40
2018,06,17,06,17,13.50
2018,06,17,06,18,13.60
2018,06,17,06,19,13.60
2018,06,17,06,20,13.70
2018,06,17,06,21,13.70
2018,06,17,06,22,13.60
2018,06,17,06,23,13.60
2018,06,17,06,24,13.50
2018,06,17,06,25,13.40
2018,06,17,06,26,13.50
2018,06,17,06,27,13.50
2018,06,17,06,28,13.50
2018,06,17,06,29,13.30
2018,06,17,06,30,13.20
2018,06,17,06,31,13.10
2018,06,17,06,32,13.00
2018,06,17,06,33,13.00
2018,06,17,06,34,12.90
2018,06,17,06,35,12.90
2018,06,17,06,36,12.80
2018,06,17,06,37,12.80
2018,06,17,06,38,12.80
2018,06,17,06,39,12.80
2018,06,17,06,40,12.90
2018,06,17,06,41,12.80
2018,06,17,06,42,12.80
2018,06,17,06,43,12.70
2018,06,17,06,44,12.80
2018,06,17,06,45,12.80
2018,06,17,06,46,12.80
2018,06,17,06,47,12.80
2018,06,17,06,48,12.80
2018,06,17,06,49,12.80
2018,06,17,06,50,12.80
2018,06,17,06,51,12.80
2018,06,17,06,52,12.80
2018,06,17,06,53,12.80
2018,06,17,06,54,12.90
2018,06,17,06,55,12.90
2018,06,17,06,56,13.00
2018,06,17,06,57,13.10
2018,06,17,06,58,13.20
2018,06,17,06,59,13.30
2018,06,17,07,00,13.30
2018,06,17,07,01,13.30
2018,06,17,07,02,13.30
2018,06,17,07,03,13.40
2018,06,17,07,04,13.50
2018,06,17,07,05,13.50
2018,06,17,07,06,13.60
2018,06,17,07,07,13.60
2018,06,17,07,08,13.60
2018,06,17,07,09,13.70
2018,06,17,07,10,13.70
2018,06,17,07,11,13.70
2018,06,17,07,12,13.70
2018,06,17,07,13,13.80
2018,06,17,07,14,13.80
2018,06,17,07,15,13.80
2018,06,17,07,16,13.80
2018,06,17,07,17,13.80
2018,06,17,07,18,13.80
2018,06,17,07,19,13.80
2018,06,17,07,20,13.90
2018,06,17,07,21,14.00
2018,06,17,07,22,14.00
2018,06,17,07,23,14.10
2018,06,17,07,24,14.10
2018,06,17,07,25,14.20
2018,06,17,07,26,14.20
2018,06,17,07,27,14.30
2018,06,17,07,28,14.30
2018,06,17,07,29,14.40
2018,06,17,07,30,14.40
2018,06,17,07,31,14.50
2018,06,17,07,32,14.50
2018,06,17,07,33,14.50
2018,06,17,07,34,14.50
2018,06,17,07,35,14.60
2018,06,17,07,36,14.60
2018,06,17,07,37,14.60
2018,06,17,07,38,14.60
2018,06,17,07,39,14.60
2018,06,17,07,40,14.60
2018,06,17,07,41,14.60
2018,06,17,07,42,14.60
2018,06,17,07,43,14.60
2018,06,17,07,44,14.70
2018,06,17,07,45,14.70
2018,06,17,07,46,14.70
2018,06,17,07,47,14.70
2018,06,17,07,48,14.70
2018,06,17,07,49,14.70
2018,06,17,07,50,14.70
2018,06,17,07,51,14.90
2018,06,17,07,52,14.90
2018,06,17,07,53,15.00
2018,06,17,07,54,15.10
2018,06,17,07,55,15.10
2018,06,17,07,56,15.20
2018,06,17,07,57,15.30
2018,06,17,07,58,15.30
2018,06,17,07,59,15.40
2018,06,17,08,00,15.40
2018,06,17,08,01,15.40
2018,06,17,08,02,15.40
2018,06,17,08,03,15.40
2018,06,17,08,04,15.50
2018,06,17,08,05,15.50
2018,06,17,08,06,15.60
2018,06,17,08,07,15.60
2018,06,17,08,08,15.70
2018,06,17,08,09,15.70
2018,06,17,08,10,15.70
2018,06,17,08,11,15.80
2018,06,17,08,12,15.80
2018,06,17,08,13,15.90
2018,06,17,08,14,15.90
2018,06,17,08,15,15.90
2018,06,17,08,16,15.90
2018,06,17,08,17,16.00
2018,06,17,08,18,16.00
2018,06,17,08,19,16.10
2018,06,17,08,20,16.10
2018,06,17,08,21,16.20
2018,06,17,08,22,16.20
2018,06,17,08,23,16.30
2018,06,17,08,24,16.30
2018,06,17,08,25,16.40
2018,06,17,08,26,16.50
2018,06,17,08,27,16.50
2018,06,17,08,28,16.50
2018,06,17,08,29,16.60
2018,06,17,08,30,16.60
2018,06,17,08,31,16.60
2018,06,17,08,32,16.70
2018,06,17,08,33,16.70
2018,06,17,08,34,16.80
2018,06,17,08,35,16.80
2018,06,17,08,36,16.80
2018,06,17,08,37,16.80
2018,06,17,08,38,16.70
2018,06,17,08,39,16.70
2018,06,17,08,40,16.80
2018,06,17,08,41,16.70
2018,06,17,08,42,16.70
2018,06,17,08,43,16.70
2018,06,17,08,44,16.70
2018,06,17,08,45,16.70
2018,06,17,08,46,16.60
2018,06,17,08,47,16.60
2018,06,17,08,48,16.60
2018,06,17,08,49,16.70
2018,06,17,08,50,16.70
2018,06,17,08,51,16.80
2018,06,17,08,52,16.80
2018,06,17,08,53,16.90
2018,06,17,08,54,16.90
2018,06,17,08,55,17.00
2018,06,17,08,56,17.00
2018,06,17,08,57,17.10
2018,06,17,08,58,17.10
2018,06,17,08,59,17.10
2018,06,17,09,00,17.10
2018,06,17,09,01,17.10
2018,06,17,09,02,17.00
2018,06,17,09,03,17.10
2018,06,17,09,04,17.10
2018,06,17,09,05,17.10
2018,06,17,09,06,17.20
2018,06,17,09,07,17.20
2018,06,17,09,08,17.30
2018,06,17,09,09,17.30
2018,06,17,09,10,17.30
2018,06,17,09,11,17.40
2018,06,17,09,12,17.40
2018,06,17,09,13,17.40
2018,06,17,09,14,17.40
2018,06,17,09,15,17.50
2018,06,17,09,16,17.60
2018,06,17,09,17,17.60
2018,06,17,09,18,17.70
2018,06,17,09,19,17.80
2018,06,17,09,20,17.80
2018,06,17,09,21,17.90
2018,06,17,09,22,18.00
2018,06,17,09,23,18.00
2018,06,17,09,24,18.00
2018,06,17,09,25,18.00
2018,06,17,09,26,18.00
2018,06,17,09,27,18.00
2018,06,17,09,28,18.00
2018,06,17,09,29,18.00
2018,06,17,09,30,18.00
2018,06,17,09,31,18.00
2018,06,17,09,32,18.00
2018,06,17,09,33,18.00
2018,06,17,09,34,17.90
2018,06,17,09,35,17.90
2018,06,17,09,36,17.80
2018,06,17,09,37,17.80
2018,06,17,09,38,17.80
2018,06,17,09,39,17.80
2018,06,17,09,40,17.80
2018,06,17,09,41,17.80
2018,06,17,09,42,17.80
2018,06,17,09,43,17.80
2018,06,17,09,44,17.80
2018,06,17,09,45,17.80
2018,06,17,09,46,17.80
2018,06,17,09,47,17.80
2018,06,17,09,48,17.80
2018,06,17,09,49,17.70
2018,06,17,09,50,17.70
2018,06,17,09,51,17.70
2018,06,17,09,52,17.70
2018,06,17,09,53,17.70
2018,06,17,09,54,17.80
2018,06,17,09,55,17.80
2018,06,17,09,56,17.90
2018,06,17,09,57,17.90
2018,06,17,09,58,18.00
2018,06,17,09,59,18.10
2018,06,17,10,00,18.10
2018,06,17,10,01,18.20
2018,06,17,10,02,18.20
2018,06,17,10,03,18.20
2018,06,17,10,04,18.30
2018,06,17,10,05,18.30
2018,06,17,10,06,18.30
2018,06,17,10,07,18.40
2018,06,17,10,08,18.40
2018,06,17,10,09,18.50
2018,06,17,10,10,18.60
2018,06,17,10,11,18.60
2018,06,17,10,12,18.60
2018,06,17,10,13,18.60
2018,06,17,10,14,18.50
2018,06,17,10,15,18.50
2018,06,17,10,16,18.50
2018,06,17,10,17,18.50
2018,06,17,10,18,18.40
2018,06,17,10,19,18.40
2018,06,17,10,20,18.40
2018,06,17,10,21,18.40
2018,06,17,10,22,18.50
2018,06,17,10,23,18.40
2018,06,17,10,24,18.40
2018,06,17,10,25,18.40
2018,06,17,10,26,18.40
2018,06,17,10,27,18.40
2018,06,17,10,28,18.40
2018,06,17,10,29,18.50
2018,06,17,10,30,18.50
2018,06,17,10,31,18.50
2018,06,17,10,32,18.40
2018,06,17,10,33,18.30
2018,06,17,10,34,18.20
2018,06,17,10,35,18.10
2018,06,17,10,36,18.00
2018,06,17,10,37,17.90
2018,06,17,10,38,17.90
2018,06,17,10,39,17.80
2018,06,17,10,40,17.70
2018,06,17,10,41,17.50
2018,06,17,10,42,17.40
2018,06,17,10,43,17.40
2018,06,17,10,44,17.40
2018,06,17,10,45,17.50
2018,06,17,10,46,17.60
2018,06,17,10,47,17.60
2018,06,17,10,48,17.60
2018,06,17,10,49,17.60
2018,06,17,10,50,17.60
2018,06,17,10,51,17.60
2018,06,17,10,52,17.60
2018,06,17,10,53,17.70
2018,06,17,10,54,17.70
2018,06,17,10,55,17.70
2018,06,17,10,56,17.80
2018,06,17,10,57,17.80
2018,06,17,10,58,17.80
2018,06,17,10,59,17.80
2018,06,17,11,00,17.70
2018,06,17,11,01,17.60
2018,06,17,11,02,17.70
2018,06,17,11,03,17.70
2018,06,17,11,04,17.80
2018,06,17,11,05,17.80
2018,06,17,11,06,17.90
2018,06,17,11,07,17.80
2018,06,17,11,08,17.80
2018,06,17,11,09,17.70
2018,06,17,11,10,17.60
2018,06,17,11,11,17.50
2018,06,17,11,12,17.40
2018,06,17,11,13,17.40
2018,06,17,11,14,17.40
2018,06,17,11,15,17.30
2018,06,17,11,16,17.30
2018,06,17,11,17,17.30
2018,06,17,11,18,17.30
2018,06,17,11,19,17.30
2018,06,17,11,20,17.30
2018,06,17,11,21,17.30
2018,06,17,11,22,17.40
2018,06,17,11,23,17.50
2018,06,17,11,24,17.50
2018,06,17,11,25,17.60
2018,06,17,11,26,17.60
2018,06,17,11,27,17.60
2018,06,17,11,28,17.60
2018,06,17,11,29,17.70
2018,06,17,11,30,17.80
2018,06,17,11,31,17.80
2018,06,17,11,32,17.90
2018,06,17,11,33,17.90
2018,06,17,11,34,18.00
2018,06,17,11,35,18.10
2018,06,17,11,36,18.20
2018,06,17,11,37,18.20
2018,06,17,11,38,18.30
2018,06,17,11,39,18.40
2018,06,17,11,40,18.40
2018,06,17,11,41,18.50
2018,06,17,11,42,18.60
2018,06,17,11,43,18.60
2018,06,17,11,44,18.60
2018,06,17,11,45,18.70
2018,06,17,11,46,18.80
2018,06,17,11,47,18.80
2018,06,17,11,48,18.80
2018,06,17,11,49,18.70
2018,06,17,11,50,18.70
2018,06,17,11,51,18.60
2018,06,17,11,52,18.50
2018,06,17,11,53,18.50
2018,06,17,11,54,18.50
2018,06,17,11,55,18.50
2018,06,17,11,56,18.50
2018,06,17,11,57,18.60
2018,06,17,11,58,18.70
2018,06,17,11,59,18.80
2018,06,17,12,00,18.90
2018,06,17,12,01,19.00
2018,06,17,12,02,19.00
2018,06,17,12,03,19.10
2018,06,17,12,04,19.10
2018,06,17,12,05,19.10
2018,06,17,12,06,19.10
2018,06,17,12,07,19.20
2018,06,17,12,08,19.20
2018,06,17,12,09,19.30
2018,06,17,12,10,19.20
2018,06,17,12,11,19.20
2018,06,17,12,12,19.10
2018,06,17,12,13,19.00
2018,06,17,12,14,18.80
2018,06,17,12,15,18.70
2018,06,17,12,16,18.70
2018,06,17,12,17,18.70
2018,06,17,12,18,18.70
2018,06,17,12,19,18.70
2018,06,17,12,20,18.80
2018,06,17,12,21,18.80
2018,06,17,12,22,18.90
2018,06,17,12,23,18.90
2018,06,17,12,24,19.00
2018,06,17,12,25,19.10
2018,06,17,12,26,19.10
2018,06,17,12,27,19.20
2018,06,17,12,28,19.20
2018,06,17,12,29,19.30
2018,06,17,12,30,19.30
2018,06,17,12,31,19.40
2018,06,17,12,32,19.50
2018,06,17,12,33,19.50
2018,06,17,12,34,19.60
2018,06,17,12,35,19.60
2018,06,17,12,36,19.60
2018,06,17,12,37,19.50
2018,06,17,12,38,19.30
2018,06,17,12,39,19.20
2018,06,17,12,40,19.00
2018,06,17,12,41,18.80
2018,06,17,12,42,18.80
2018,06,17,12,43,18.80
2018,06,17,12,44,18.80
2018,06,17,12,45,18.90
2018,06,17,12,46,18.90
2018,06,17,12,47,18.90
2018,06,17,12,48,18.90
2018,06,17,12,49,18.90
2018,06,17,12,50,19.00
2018,06,17,12,51,19.10
2018,06,17,12,52,19.10
2018,06,17,12,53,19.10
2018,06,17,12,54,19.10
2018,06,17,12,55,19.10
2018,06,17,12,56,19.20
2018,06,17,12,57,19.20
2018,06,17,12,58,19.20
2018,06,17,12,59,19.20
2018,06,17,13,00,19.30
2018,06,17,13,01,19.30
2018,06,17,13,02,19.30
2018,06,17,13,03,19.30
2018,06,17,13,04,19.30
2018,06,17,13,05,19.30
2018,06,17,13,06,19.30
2018,06,17,13,07,19.40
2018,06,17,13,08,19.40
2018,06,17,13,09,19.40
2018,06,17,13,10,19.50
2018,06,17,13,11,19.50
2018,06,17,13,12,19.50
2018,06,17,13,13,19.50
2018,06,17,13,14,19.60
2018,06,17,13,15,19.60
2018,06,17,13,16,19.60
2018,06,17,13,17,19.70
2018,06,17,13,18,19.70
2018,06,17,13,19,19.80
2018,06,17,13,20,19.80
2018,06,17,13,21,19.90
2018,06,17,13,22,19.90
2018,06,17,13,23,20.00
2018,06,17,13,24,20.10
2018,06,17,13,25,20.10
2018,06,17,13,26,20.20
2018,06,17,13,27,20.30
2018,06,17,13,28,20.40
2018,06,17,13,29,20.50
2018,06,17,13,30,20.60
2018,06,17,13,31,20.70
2018,06,17,13,32,20.80
2018,06,17,13,33,20.80
2018,06,17,13,34,20.90
2018,06,17,13,35,21.00
2018,06,17,13,36,21.00
2018,06,17,13,37,21.00
2018,06,17,13,38,21.00
2018,06,17,13,39,21.10
2018,06,17,13,40,21.10
2018,06,17,13,41,21.20
2018,06,17,13,42,21.30
2018,06,17,13,43,21.30
2018,06,17,13,44,21.40
2018,06,17,13,45,21.50
2018,06,17,13,46,21.60
2018,06,17,13,47,21.70
2018,06,17,13,48,21.70
2018,06,17,13,49,21.80
2018,06,17,13,50,21.80
2018,06,17,13,51,21.90
2018,06,17,13,52,22.00
2018,06,17,13,53,22.00
2018,06,17,13,54,22.00
2018,06,17,13,55,22.00
2018,06,17,13,56,22.00
2018,06,17,13,57,22.00
2018,06,17,13,58,22.00
2018,06,17,13,59,22.10
2018,06,17,14,00,22.10
2018,06,17,14,01,22.10
2018,06,17,14,02,22.10
2018,06,17,14,03,22.10
2018,06,17,14,04,22.10
2018,06,17,14,05,22.20
2018,06,17,14,06,22.20
2018,06,17,14,07,22.20
2018,06,17,14,08,22.20
2018,06,17,14,09,22.20
2018,06,17,14,10,22.20
2018,06,17,14,11,22.20
2018,06,17,14,12,22.20
2018,06,17,14,13,22.20
2018,06,17,14,14,22.20
2018,06,17,14,15,22.20
2018,06,17,14,16,22.20
2018,06,17,14,17,22.20
2018,06,17,14,18,22.20
2018,06,17,14,19,22.20
2018,06,17,14,20,22.20
2018,06,17,14,21,22.20
2018,06,17,14,22,22.30
2018,06,17,14,23,22.30
2018,06,17,14,24,22.30
2018,06,17,14,25,22.30
2018,06,17,14,26,22.30
2018,06,17,14,27,22.40
2018,06,17,14,28,22.40
2018,06,17,14,29,22.50
2018,06,17,14,30,22.50
2018,06,17,14,31,22.50
2018,06,17,14,32,22.50
2018,06,17,14,33,22.60
2018,06,17,14,34,22.60
2018,06,17,14,35,22.70
2018,06,17,14,36,22.70
2018,06,17,14,37,22.70
2018,06,17,14,38,22.80
2018,06,17,14,39,22.80
2018,06,17,14,40,22.80
2018,06,17,14,41,22.80
2018,06,17,14,42,22.80
2018,06,17,14,43,22.80
2018,06,17,14,44,22.90
2018,06,17,14,45,22.90
2018,06,17,14,46,22.90
2018,06,17,14,47,22.90
2018,06,17,14,48,22.90
2018,06,17,14,49,22.90
2018,06,17,14,50,22.90
2018,06,17,14,51,22.90
2018,06,17,14,52,22.90
2018,06,17,14,53,22.90
2018,06,17,14,54,22.90
2018,06,17,14,55,22.90
2018,06,17,14,56,22.90
2018,06,17,14,57,23.00
2018,06,17,14,58,23.00
2018,06,17,14,59,23.00
2018,06,17,15,00,23.00
2018,06,17,15,01,23.00
2018,06,17,15,02,23.00
2018,06,17,15,03,23.00
2018,06,17,15,04,23.00
2018,06,17,15,05,23.00
2018,06,17,15,06,23.00
2018,06,17,15,07,23.10
2018,06,17,15,08,23.00
2018,06,17,15,09,23.10
2018,06,17,15,10,23.10
2018,06,17,15,11,23.20
2018,06,17,15,12,23.20
2018,06,17,15,13,23.30
2018,06,17,15,14,23.30
2018,06,17,15,15,23.30
2018,06,17,15,16,23.30
2018,06,17,15,17,23.30
2018,06,17,15,18,23.40
2018,06,17,15,19,23.40
2018,06,17,15,20,23.50
2018,06,17,15,21,23.40
2018,06,17,15,22,23.40
2018,06,17,15,23,23.40
2018,06,17,15,24,23.40
2018,06,17,15,25,23.40
2018,06,17,15,26,23.40
2018,06,17,15,27,23.40
2018,06,17,15,28,23.40
2018,06,17,15,29,23.40
2018,06,17,15,30,23.40
2018,06,17,15,31,23.40
2018,06,17,15,32,23.40
2018,06,17,15,33,23.40
2018,06,17,15,34,23.40
2018,06,17,15,35,23.50
2018,06,17,15,36,23.50
2018,06,17,15,37,23.50
2018,06,17,15,38,23.50
2018,06,17,15,39,23.50
2018,06,17,15,40,23.50
2018,06,17,15,41,23.50
2018,06,17,15,42,23.60
2018,06,17,15,43,23.60
2018,06,17,15,44,23.60
2018,06,17,15,45,23.60
2018,06,17,15,46,23.60
2018,06,17,15,47,23.60
2018,06,17,15,48,23.60
2018,06,17,15,49,23.60
2018,06,17,15,50,23.60
2018,06,17,15,51,23.60
2018,06,17,15,52,23.60
2018,06,17,15,53,23.60
2018,06,17,15,54,23.60
2018,06,17,15,55,23.60
2018,06,17,15,56,23.60
2018,06,17,15,57,23.60
2018,06,17,15,58,23.60
2018,06,17,15,59,23.60
2018,06,17,16,00,23.60
2018,06,17,16,01,23.60
2018,06,17,16,02,23.70
2018,06,17,16,03,23.70
2018,06,17,16,04,23.70
2018,06,17,16,05,23.70
2018,06,17,16,06,23.80
2018,06,17,16,07,23.80
2018,06,17,16,08,23.90
2018,06,17,16,09,23.90
2018,06,17,16,10,23.90
2018,06,17,16,11,23.90
2018,06,17,16,12,23.90
2018,06,17,16,13,23.80
2018,06,17,16,14,23.80
2018,06,17,16,15,23.80
2018,06,17,16,16,23.80
2018,06,17,16,17,23.80
2018,06,17,16,18,23.70
2018,06,17,16,19,23.70
2018,06,17,16,20,23.70
2018,06,17,16,21,23.70
2018,06,17,16,22,23.80
2018,06,17,16,23,23.80
2018,06,17,16,24,23.80
2018,06,17,16,25,23.80
2018,06,17,16,26,23.80
2018,06,17,16,27,23.70
2018,06,17,16,28,23.70
2018,06,17,16,29,23.70
2018,06,17,16,30,23.70
2018,06,17,16,31,23.70
2018,06,17,16,32,23.60
2018,06,17,16,33,23.60
2018,06,17,16,34,23.60
2018,06,17,16,35,23.60
2018,06,17,16,36,23.60
2018,06,17,16,37,23.60
2018,06,17,16,38,23.60
2018,06,17,16,39,23.60
2018,06,17,16,40,23.50
2018,06,17,16,41,23.30
2018,06,17,16,42,23.20
2018,06,17,16,43,23.10
2018,06,17,16,44,23.10
2018,06,17,16,45,23.00
2018,06,17,16,46,23.00
2018,06,17,16,47,23.00
2018,06,17,16,48,23.20
2018,06,17,16,49,23.30
2018,06,17,16,50,23.40
2018,06,17,16,51,23.40
2018,06,17,16,52,23.30
2018,06,17,16,53,23.20
2018,06,17,16,54,23.20
2018,06,17,16,55,23.30
2018,06,17,16,56,23.30
2018,06,17,16,57,23.30
2018,06,17,16,58,23.40
2018,06,17,16,59,23.40
2018,06,17,17,00,23.40
2018,06,17,17,01,23.50
2018,06,17,17,02,23.60
2018,06,17,17,03,23.60
2018,06,17,17,04,23.70
2018,06,17,17,05,23.70
2018,06,17,17,06,23.80
2018,06,17,17,07,23.80
2018,06,17,17,08,23.80
2018,06,17,17,09,23.90
2018,06,17,17,10,23.90
2018,06,17,17,11,23.90
2018,06,17,17,12,23.80
2018,06,17,17,13,23.80
2018,06,17,17,14,23.80
2018,06,17,17,15,23.80
2018,06,17,17,16,23.70
2018,06,17,17,17,23.70
2018,06,17,17,18,23.70
2018,06,17,17,19,23.70
2018,06,17,17,20,23.70
2018,06,17,17,21,23.70